Location: Aulus
(42.7909°N, 1.3399°E)
Time: 17:42:14
(UTC+00:00)

Cosmos 2221 - Pass Details

Date: 19 May 2025
Orbit: 572 x 593 km, 82.5° (Epoch: 13 June)

Event Time Altitude Azimuth Distance (km) Brightness Sun altitude
Exits shadow 21:37:36 55° 137° (SE) 696 2.4 -20.1°
Maximum altitude 21:38:11 63° 95° (E) 649 2.4 -20.2°
Drops below altitude 10° 21:42:19 10° 15° (NNE) 1,894 5.6 -20.6°
Sets 21:44:31 0° 12° (NNE) 2,795 6.6 -20.8°
